Dewpoint
59 59 59 58 57 57 56 55 54 53 53 53 53 53 53 53 53 53 53 51 51 50 50 49 49 49 48 49 48 48 47 46 47 48 48 48 48 49 48 50 49 49 49 48 50 50 50 49 49 49 47 46 46 46 47 47 47 47 46 43 42 40 36 36 34 37 37 43 39 36 37 38 34 31 29 32 34 40 45 45 47 46 43 41 42
59 58 58 58 57 57 56 54 54 53 53 53 53 53 53 52 53 53 51 51 50 50 49 49 49 48 47 48 48 48 47 47 48 48 48 47 47 49 48 49 49 48 48 49 49 50 48 47 48 48 47 45 45 45 45 45 44 44 43 42 40 40 38 37 37 35 35 39 37 40 38 35 29 33 31 35 35 39 36 40 46 43 40 42 41
59 59 58 58 57 58 57 56 55 54 53 52 52 53 52 52 53 52 51 51 51 50 49 49 49 47 47 47 48 47 47 48 48 47 46 46 47 47 48 48 48 48 48 48 48 48 47 48 47 47 48 46 45 45 45 44 44 42 43 42 40 40 40 37 37 37 37 38 40 38 38 39 34 32 33 37 41 42 40 40 42 41 41 43 43
59 59 58 58 58 58 58 58 58 57 54 52 52 53 52 52 52 51 51 51 51 51 49 48 48 46 47 46 46 47 48 49 47 46 47 47 47 48 48 48 48 48 48 48 47 47 46 46 46 46 46 45 45 45 46 45 45 45 45 45 43 42 42 40 38 40 39 37 39 36 39 40 40 41 36 41 41 40 41 42 42 42 42 43 43
58 59 58 58 57 57 57 58 58 58 57 54 52 52 52 51 52 51 51 50 51 51 50 49 48 47 47 46 46 47 49 48 47 47 48 48 48 48 49 48 48 48 48 48 51 47 47 45 46 46 46 46 46 46 46 45 45 45 45 45 44 45 46 42 42 41 39 37 38 40 41 42 43 42 38 37 40 41 42 42 42 43 43 44 44
57 57 57 57 56 56 57 57 57 56 57 56 54 53 52 52 52 52 50 49 51 51 48 48 48 46 45 45 46 47 48 47 46 49 49 48 48 48 48 48 48 48 48 49 49 48 47 47 47 46 46 46 46 47 47 47 46 45 44 45 46 46 45 45 44 41 39 38 39 39 41 41 41 42 40 39 41 41 42 42 43 44 42 41 42
56 56 56 56 56 56 56 56 56 56 57 56 57 56 53 52 52 52 50 48 50 49 47 48 49 46 46 46 47 48 48 47 47 48 48 48 47 47 48 48 48 47 47 48 48 47 47 48 48 47 47 48 48 48 48 47 47 45 45 46 46 45 45 45 45 42 40 39 40 40 39 43 42 39 41 42 42 42 41 40 40 41 42 41 41
55 55 56 56 56 57 57 56 56 56 56 57 58 58 57 55 52 53 52 52 51 48 46 48 48 47 46 46 47 48 47 47 47 48 48 48 48 47 48 49 48 47 47 47 47 47 47 48 48 48 48 49 49 49 48 48 48 47 47 47 46 45 45 46 45 43 42 41 40 41 42 41 41 43 43 41 40 40 42 41 39 39 40 41 40
56 56 56 55 55 56 56 57 56 56 57 57 57 57 57 57 56 54 52 52 53 50 49 51 49 48 47 47 47 48 48 48 47 47 47 48 47 48 48 49 48 47 47 47 47 48 47 48 48 49 51 53 51 49 49 50 48 47 47 47 47 47 46 45 45 45 43 43 42 42 42 42 41 41 40 40 39 39 40 41 39 40 40 39 40
55 55 55 55 55 56 56 55 56 56 57 56 56 57 57 56 56 56 55 54 52 51 51 50 49 48 48 48 47 48 48 48 49 47 47 48 48 48 48 47 48 47 47 47 47 48 48 48 49 55 54 52 50 47 46 47 49 48 48 47 47 47 47 46 45 45 44 43 42 42 42 42 41 41 41 41 42 41 40 39 38 38 38 37 38
55 54 55 55 55 56 56 55 55 55 56 56 55 56 57 56 56 55 55 54 54 54 52 51 51 50 51 50 48 48 49 50 46 43 42 45 47 48 48 47 47 48 47 48 47 49 50 50 50 54 53 52 48 44 43 43 43 44 46 47 48 47 47 46 46 45 45 43 43 42 42 42 42 42 42 42 41 40 39 39 39 38 36 34 33
40 43 48 53 55 55 55 55 55 54 54 55 55 55 56 55 54 51 54 54 53 53 54 53 52 51 51 50 49 50 50 49 42 42 42 42 45 48 49 48 49 49 49 48 49 50 51 51 50 52 51 49 47 44 43 41 40 39 39 40 42 44 46 47 46 44 44 44 43 43 43 43 42 42 41 41 41 40 39 39 38 37 35 34 34
37 37 37 37 39 48 54 55 55 54 54 54 55 54 53 54 54 54 53 54 52 54 53 53 52 51 50 50 50 50 50 44 42 43 43 43 43 47 49 49 48 49 50 49 51 51 51 51 50 51 51 52 50 45 43 41 39 39 39 38 39 39 40 43 43 46 46 45 44 43 43 43 43 42 42 41 41 39 39 37 36 36 34 32 32
37 37 37 37 37 37 38 39 40 44 50 51 52 52 53 53 52 53 53 52 52 53 53 52 52 51 51 50 49 49 49 46 40 42 43 42 42 47 51 51 50 50 52 52 52 52 52 52 51 51 51 52 50 48 46 43 41 40 40 40 39 38 38 38 40 42 44 46 45 44 45 44 43 43 44 41 37 37 36 35 36 34 33 31 33
36 36 36 36 36 36 36 36 38 40 42 44 44 45 47 47 49 51 52 52 51 52 52 52 52 51 51 50 49 50 51 47 41 40 40 41 41 44 50 52 52 52 53 53 53 53 53 53 52 51 52 52 51 49 48 45 43 43 42 41 39 42 44 44 44 46 47 47 46 46 46 43 41 40 41 41 38 36 35 34 33 31 33 35 34
35 36 35 36 38 38 37 36 37 38 38 39 39 40 41 42 43 46 47 49 50 51 50 50 50 51 51 50 50 51 52 47 43 41 39 40 40 48 49 51 52 52 52 53 53 52 52 53 53 52 52 53 49 45 46 47 45 44 43 41 40 37 37 38 37 39 45 46 45 44 41 39 38 38 38 38 38 38 37 37 36 35 34 33 32
35 36 36 36 37 36 37 37 37 37 37 37 37 38 38 38 38 42 40 42 43 46 49 50 52 52 50 49 50 51 52 49 44 42 42 40 42 48 49 50 51 51 52 52 52 52 53 53 51 52 52 52 49 43 44 45 46 45 44 42 40 37 36 36 36 37 39 39 38 38 37 37 37 37 37 36 35 36 34 34 33 33 33 31 32
38 36 36 37 37 37 37 37 37 37 37 37 37 37 37 37 37 39 38 38 39 41 44 47 49 50 51 52 52 52 52 51 47 45 43 40 45 50 49 49 49 50 50 51 52 53 54 52 53 52 51 53 48 43 43 45 47 47 45 42 40 37 35 37 38 37 37 36 36 35 35 35 35 36 36 35 36 39 33 32 34 34 34 33 31
36 36 37 37 37 37 37 37 37 37 37 37 37 37 37 37 37 38 38 38 38 39 41 41 43 46 49 51 53 52 53 52 47 45 44 42 44 49 50 49 48 48 50 51 51 51 52 52 51 51 52 51 46 43 42 45 49 48 46 43 42 38 36 36 35 33 33 32 32 32 32 36 36 35 37 37 38 39 35 35 35 35 34 32 32
37 37 37 37 37 38 38 38 37 37 37 37 37 38 38 36 37 37 37 36 36 37 37 38 39 41 44 46 49 51 52 53 51 46 45 45 44 49 49 50 49 49 49 51 51 50 50 51 50 46 45 46 44 42 42 43 49 48 46 45 43 41 38 35 34 35 36 37 33 36 34 36 36 35 33 35 38 40 37 37 36 35 34 32 33
37 37 37 37 37 37 37 37 37 37 38 38 38 38 37 37 37 37 36 36 36 36 36 37 37 38 39 41 45 47 50 51 51 47 46 45 44 45 49 50 51 51 50 50 51 51 50 50 50 47 44 43 43 42 42 42 44 48 47 46 46 44 40 37 37 38 38 39 39 40 40 39 37 35 35 34 34 35 37 36 35 34 33 32 30
36 36 36 36 36 37 37 37 38 39 38 38 36 36 37 37 37 36 36 36 35 35 35 36 36 36 37 39 41 44 47 48 51 48 46 46 45 43 48 50 50 51 50 50 51 50 51 50 50 47 43 42 42 41 41 42 42 48 47 43 39 37 38 39 38 41 41 39 38 37 35 36 36 37 37 36 36 36 34 34 34 32 32 32 31
35 36 36 35 36 36 36 36 36 37 37 37 36 35 36 36 36 36 35 35 34 34 34 34 34 35 36 38 39 42 44 46 44 47 46 45 45 42 43 46 45 50 51 51 51 51 50 48 47 44 41 41 40 40 41 41 41 43 40 39 38 37 38 40 40 38 36 35 34 33 34 34 35 35 36 36 35 34 34 33 33 33 33 34 33
35 35 36 35 35 36 36 36 36 36 36 36 36 35 35 35 35 36 35 35 34 33 33 34 34 34 34 35 36 39 42 44 43 43 45 45 44 43 40 40 42 48 51 51 51 50 48 46 44 39 39 38 39 40 39 40 42 38 39 38 37 38 42 39 37 36 34 32 33 32 33 33 33 33 33 34 34 34 34 33 33 33 32 32 31
35 35 35 35 35 35 35 35 36 35 35 35 35 35 35 35 34 35 35 34 34 33 34 34 34 33 33 34 35 36 39 42 43 44 43 42 42 42 40 38 39 39 45 47 47 48 45 41 39 37 38 38 38 38 38 38 36 37 38 37 39 42 40 39 36 33 33 32 32 32 32 32 32 33 33 33 34 33 32 32 31 31 30 30 30
35 35 35 34 35 35 35 35 35 35 35 35 35 35 34 35 34 34 34 34 34 34 33 33 33 33 33 33 34 35 38 40 42 44 43 42 41 39 38 38 38 38 41 44 42 40 38 37 36 36 36 36 36 37 37 37 37 37 37 39 39 37 36 34 33 32 31 31 31 31 31 32 32 32 32 32 31 30 30 29 30 31 30 30 30
35 34 34 34 34 34 34 35 34 34 34 34 35 35 35 35 34 34 34 33 33 33 33 33 33 33 33 33 34 35 38 40 40 42 43 43 42 42 40 40 39 39 41 41 39 38 37 37 36 36 36 34 34 33 35 35 36 37 38 37 35 34 34 33 31 31 30 29 30 30 30 31 32 31 30 31 31 29 30 30 29 29 29 28 29
34 34 34 34 34 34 34 33 33 33 33 34 34 34 35 35 34 34 34 34 33 33 33 33 33 33 33 34 35 36 37 38 39 40 42 42 42 41 41 41 42 42 43 41 40 39 37 34 34 34 33 33 33 34 35 36 36 35 34 35 32 32 33 34 32 29 28 28 29 29 29 30 30 30 30 30 29 29 29 29 29 28 29 28 27
34 34 34 34 34 34 34 34 33 33 33 34 34 34 34 35 35 34 34 34 34 34 34 33 34 34 34 35 35 35 36 37 39 38 39 39 39 41 39 40 41 42 40 37 38 37 36 35 33 33 33 31 31 31 33 34 33 34 33 31 31 31 30 27 27 27 28 28 28 29 29 29 29 30 30 29 29 28 27 30 28 29 27 28 26
33 34 34 34 34 35 34 34 34 34 34 34 34 35 33 35 35 35 34 35 35 35 34 33 34 34 34 35 35 36 36 37 37 37 37 38 38 38 38 38 38 41 37 36 36 35 34 32 31 31 31 30 30 30 32 33 32 31 31 30 30 29 27 27 26 26 28 29 29 29 29 29 29 29 28 28 27 28 29 30 28 28 27 26 27
32 32 33 33 34 34 34 35 35 36 36 35 35 35 35 35 34 34 35 35 35 34 34 34 34 34 35 34 35 35 35 35 36 37 37 37 38 38 37 37 37 36 35 35 34 34 33 31 30 30 30 31 30 31 32 32 31 30 30 30 29 28 27 26 26 29 29 29 28 28 27 29 28 28 28 27 28 27 27 27 27 27 28 27 27
31 33 34 34 34 34 35 36 36 37 36 36 35 35 34 34 35 34 34 34 35 35 34 34 34 34 34 35 35 34 34 34 35 36 37 37 37 37 36 36 36 35 35 35 34 33 32 31 30 31 31 31 31 32 32 32 31 31 30 28 28 27 27 27 28 28 28 28 27 27 28 29 28 27 27 27 25 26 26 25 25 26 27 28 28
34 34 35 35 35 35 36 37 37 37 36 35 35 34 33 34 34 34 35 34 34 34 34 34 34 34 34 34 34 34 34 34 35 36 37 37 37 36 35 35 35 35 35 34 34 33 33 33 33 33 33 32 33 33 33 33 31 30 29 28 27 28 26 27 29 27 28 28 27 27 28 28 27 26 26 26 25 23 24 24 26 26 27 27 28
35 35 35 35 36 36 36 36 35 35 35 34 34 34 34 34 34 34 34 33 33 33 34 34 34 34 34 34 34 34 34 35 36 36 36 37 37 35 34 34 35 34 34 34 34 33 34 35 35 35 36 34 34 33 32 31 31 30 29 27 27 27 27 27 26 27 27 27 27 26 26 26 25 26 24 23 23 24 25 25 26 24 26 27 28
35 35 34 34 35 34 34 33 35 35 35 34 34 34 34 34 33 33 33 33 33 33 33 33 33 33 33 33 34 34 34 35 36 36 36 36 35 34 34 35 34 34 36 35 35 36 35 34 34 34 36 34 33 31 32 34 32 30 29 29 28 27 28 29 28 28 28 28 27 25 25 25 24 23 23 23 24 24 25 25 24 26 27 27 27
36 35 35 34 33 33 33 35 35 35 35 35 35 34 34 34 33 33 33 33 33 33 33 33 33 33 34 34 34 34 34 35 35 35 35 35 34 34 34 34 34 34 35 36 37 37 37 36 35 35 36 35 35 33 34 32 32 31 30 29 28 28 29 29 29 28 27 28 27 28 28 26 25 26 26 27 27 26 25 24 25 27 27 26 26
35 35 34 33 32 33 35 36 35 35 33 33 33 34 34 34 33 34 34 33 33 33 33 33 33 33 33 33 33 34 34 34 35 35 35 34 34 34 34 34 35 35 35 37 37 37 37 36 37 37 37 36 35 34 32 33 32 29 30 29 28 29 29 29 29 28 28 28 27 27 26 25 26 27 28 26 24 24 24 24 24 26 27 28 30
33 33 33 33 34 35 35 35 35 33 33 33 33 33 33 34 33 33 33 33 33 33 33 33 33 33 33 33 36 34 31 34 34 34 34 34 34 33 33 32 33 33 33 34 35 37 38 38 37 36 36 36 36 35 33 33 30 29 28 28 29 29 30 30 29 28 28 28 27 25 25 24 24 24 26 26 24 23 23 24 24 25 27 30 31
30 31 32 32 33 34 34 34 34 34 33 33 32 30 31 32 33 33 33 33 33 33 33 33 34 34 35 35 34 34 34 31 31 32 32 32 32 33 33 32 32 33 33 34 35 36 36 37 36 37 36 35 34 34 32 30 29 28 28 28 29 29 29 28 29 28 28 27 25 24 25 22 21 21 23 25 23 23 25 25 26 28 29 30 31
30 31 33 33 33 34 34 33 33 33 32 32 33 31 31 31 31 33 33 34 34 33 33 33 34 35 35 34 32 32 33 32 33 33 31 31 32 33 32 32 33 34 34 36 37 37 37 36 37 36 35 35 33 31 30 28 28 28 28 28 28 28 28 29 29 28 28 27 26 25 25 24 23 23 23 22 23 23 24 25 26 29 30 30 31
31 30 32 33 33 34 35 34 34 34 33 32 31 31 31 31 31 31 32 33 33 33 33 34 34 34 33 32 33 33 32 32 33 33 31 31 31 30 32 33 34 35 34 34 34 34 35 36 34 33 32 32 31 30 30 29 28 28 28 28 28 29 29 29 28 28 28 27 26 25 24 25 26 28 28 25 29 26 25 27 29 30 30 31 31
30 30 30 31 32 34 34 33 34 33 33 31 31 31 31 31 30 30 31 32 33 33 33 32 32 31 32 33 33 33 32 32 33 33 33 33 32 31 31 32 32 32 32 32 33 34 34 33 32 32 31 30 29 29 29 30 30 29 29 29 29 29 28 28 28 27 27 25 24 24 23 24 25 25 26 30 22 22 26 29 29 29 30 31 31
30 30 29 30 31 33 33 33 33 33 31 31 31 31 31 31 30 30 30 31 32 32 32 31 31 31 31 32 32 32 32 32 32 33 33 33 33 33 33 32 32 33 33 32 31 32 31 31 31 30 30 29 30 29 29 30 29 29 29 28 28 27 27 26 27 27 27 26 25 24 22 22 23 23 22 23 24 28 30 29 30 30 31 31 31
30 30 30 30 31 31 31 32 32 32 30 31 31 30 31 31 31 30 30 30 31 31 31 31 30 30 30 31 32 32 32 33 33 33 33 32 33 32 32 32 31 31 31 30 30 30 30 29 29 29 30 30 31 30 30 30 29 29 28 27 27 26 26 25 25 24 25 26 24 24 24 24 23 21 25 25 25 27 29 29 30 31 31 31 31
30 30 30 29 29 29 30 29 29 30 31 31 30 30 30 30 31 31 31 30 30 31 30 30 30 30 30 30 31 32 32 32 32 32 32 32 32 32 31 31 30 30 30 30 30 30 30 29 29 29 29 29 30 30 29 29 29 29 28 27 27 26 25 24 21 20 22 24 24 24 23 23 22 22 23 24 27 27 29 30 31 31 31 31 31
29 29 31 30 30 30 30 29 30 30 29 30 29 29 30 30 30 31 31 30 30 30 31 30 30 30 31 32 32 32 32 32 32 32 32 31 31 31 31 31 31 31 30 30 30 30 29 29 29 29 28 28 28 27 27 26 26 26 26 25 25 24 21 21 20 22 21 21 22 22 22 22 22 24 26 24 25 28 28 30 30 31 31 31 31
30 29 29 29 30 29 30 30 31 31 30 29 30 30 30 32 33 33 33 32 31 32 32 32 32 32 32 32 32 32 32 32 32 32 32 32 32 31 31 31 30 30 30 31 31 30 30 29 29 28 28 27 26 25 25 25 25 25 25 24 24 23 22 20 21 21 21 20 20 21 21 22 22 22 24 25 26 29 30 31 31 31 31 31 30
29 29 30 30 29 30 30 32 32 32 31 31 31 31 31 32 32 32 32 33 33 32 31 31 32 32 32 32 32 32 32 32 32 32 32 32 32 32 32 32 31 31 31 31 31 31 31 30 30 29 29 28 26 25 25 25 25 24 24 24 24 24 24 22 21 22 20 20 21 21 21 21 21 22 24 24 26 29 30 31 31 31 31 30 30
29 29 30 29 29 29 30 31 32 32 32 32 32 32 32 32 32 32 32 33 33 32 30 29 30 31 32 32 32 32 32 32 32 32 32 32 32 32 32 32 32 32 31 31 31 31 30 30 30 29 29 28 26 26 25 25 24 24 24 24 24 24 24 24 24 24 24 21 20 20 20 20 21 22 23 23 25 27 29 30 30 30 31 29 29
29 29 29 30 29 29 30 31 32 33 33 33 32 32 32 32 32 33 33 33 32 32 31 31 31 31 31 32 32 32 32 32 32 32 32 32 32 32 32 32 31 31 30 30 30 29 29 28 28 27 26 25 24 24 24 23 23 23 23 24 24 24 24 24 25 25 25 24 23 22 21 21 21 21 20 21 22 24 25 27 30 31 30 30 29
30 29 29 29 29 29 31 31 31 31 32 32 32 32 32 32 32 31 30 30 30 30 31 31 32 33 33 32 32 32 33 33 33 33 33 32 32 32 32 31 30 30 29 29 28 28 28 27 26 25 24 23 22 22 22 22 23 23 24 24 24 24 24 24 24 25 25 26 26 24 23 23 23 22 22 22 22 23 26 28 29 30 30 30 30